Year,Month,Day,Hour,Minute,Value (Times are PST for temperature in C)
2017,09,18,00,00,8.70
2017,09,18,00,01,8.70
2017,09,18,00,02,8.70
2017,09,18,00,03,8.70
2017,09,18,00,04,8.70
2017,09,18,00,05,8.70
2017,09,18,00,06,8.70
2017,09,18,00,07,8.70
2017,09,18,00,08,8.70
2017,09,18,00,09,8.70
2017,09,18,00,10,8.70
2017,09,18,00,11,8.70
2017,09,18,00,12,8.70
2017,09,18,00,13,8.70
2017,09,18,00,14,8.70
2017,09,18,00,15,8.70
2017,09,18,00,16,8.70
2017,09,18,00,17,8.80
2017,09,18,00,18,8.80
2017,09,18,00,19,8.80
2017,09,18,00,20,8.80
2017,09,18,00,21,8.80
2017,09,18,00,22,8.80
2017,09,18,00,23,8.80
2017,09,18,00,24,8.80
2017,09,18,00,25,8.80
2017,09,18,00,26,8.80
2017,09,18,00,27,8.80
2017,09,18,00,28,8.80
2017,09,18,00,29,8.80
2017,09,18,00,30,8.80
2017,09,18,00,31,8.80
2017,09,18,00,32,8.80
2017,09,18,00,33,8.80
2017,09,18,00,34,8.80
2017,09,18,00,35,8.80
2017,09,18,00,36,8.80
2017,09,18,00,37,8.80
2017,09,18,00,38,8.80
2017,09,18,00,39,8.80
2017,09,18,00,40,8.80
2017,09,18,00,41,8.80
2017,09,18,00,42,8.80
2017,09,18,00,43,8.80
2017,09,18,00,44,8.80
2017,09,18,00,45,8.80
2017,09,18,00,46,8.80
2017,09,18,00,47,8.80
2017,09,18,00,48,8.80
2017,09,18,00,49,8.80
2017,09,18,00,50,8.80
2017,09,18,00,51,8.80
2017,09,18,00,52,8.80
2017,09,18,00,53,8.80
2017,09,18,00,54,8.80
2017,09,18,00,55,8.80
2017,09,18,00,56,8.80
2017,09,18,00,57,8.80
2017,09,18,00,58,8.80
2017,09,18,00,59,8.80
2017,09,18,01,00,8.80
2017,09,18,01,01,8.80
2017,09,18,01,02,8.80
2017,09,18,01,03,8.80
2017,09,18,01,04,8.80
2017,09,18,01,05,8.70
2017,09,18,01,06,8.70
2017,09,18,01,07,8.70
2017,09,18,01,08,8.70
2017,09,18,01,09,8.70
2017,09,18,01,10,8.70
2017,09,18,01,11,8.70
2017,09,18,01,12,8.70
2017,09,18,01,13,8.70
2017,09,18,01,14,8.70
2017,09,18,01,15,8.70
2017,09,18,01,16,8.60
2017,09,18,01,17,8.60
2017,09,18,01,18,8.60
2017,09,18,01,19,8.60
2017,09,18,01,20,8.60
2017,09,18,01,21,8.60
2017,09,18,01,22,8.60
2017,09,18,01,23,8.60
2017,09,18,01,24,8.60
2017,09,18,01,25,8.60
2017,09,18,01,26,8.60
2017,09,18,01,27,8.60
2017,09,18,01,28,8.60
2017,09,18,01,29,8.60
2017,09,18,01,30,8.50
2017,09,18,01,31,8.60
2017,09,18,01,32,8.50
2017,09,18,01,33,8.50
2017,09,18,01,34,8.50
2017,09,18,01,35,8.50
2017,09,18,01,36,8.50
2017,09,18,01,37,8.50
2017,09,18,01,38,8.50
2017,09,18,01,39,8.40
2017,09,18,01,40,8.40
2017,09,18,01,41,8.40
2017,09,18,01,42,8.40
2017,09,18,01,43,8.40
2017,09,18,01,44,8.40
2017,09,18,01,45,8.40
2017,09,18,01,46,8.40
2017,09,18,01,47,8.40
2017,09,18,01,48,8.40
2017,09,18,01,49,8.40
2017,09,18,01,50,8.40
2017,09,18,01,51,8.30
2017,09,18,01,52,8.30
2017,09,18,01,53,8.30
2017,09,18,01,54,8.30
2017,09,18,01,55,8.30
2017,09,18,01,56,8.30
2017,09,18,01,57,8.30
2017,09,18,01,58,8.30
2017,09,18,01,59,8.30
2017,09,18,02,00,8.30
2017,09,18,02,01,8.30
2017,09,18,02,02,8.30
2017,09,18,02,03,8.30
2017,09,18,02,04,8.30
2017,09,18,02,05,8.30
2017,09,18,02,06,8.30
2017,09,18,02,07,8.30
2017,09,18,02,08,8.30
2017,09,18,02,09,8.30
2017,09,18,02,10,8.30
2017,09,18,02,11,8.20
2017,09,18,02,12,8.20
2017,09,18,02,13,8.20
2017,09,18,02,14,8.20
2017,09,18,02,15,8.20
2017,09,18,02,16,8.20
2017,09,18,02,17,8.20
2017,09,18,02,18,8.20
2017,09,18,02,19,8.20
2017,09,18,02,20,8.20
2017,09,18,02,21,8.20
2017,09,18,02,22,8.20
2017,09,18,02,23,8.20
2017,09,18,02,24,8.20
2017,09,18,02,25,8.20
2017,09,18,02,26,8.20
2017,09,18,02,27,8.20
2017,09,18,02,28,8.20
2017,09,18,02,29,8.20
2017,09,18,02,30,8.20
2017,09,18,02,31,8.20
2017,09,18,02,32,8.20
2017,09,18,02,33,8.20
2017,09,18,02,34,8.20
2017,09,18,02,35,8.20
2017,09,18,02,36,8.20
2017,09,18,02,37,8.20
2017,09,18,02,38,8.20
2017,09,18,02,39,8.20
2017,09,18,02,40,8.20
2017,09,18,02,41,8.20
2017,09,18,02,42,8.20
2017,09,18,02,43,8.10
2017,09,18,02,44,8.10
2017,09,18,02,45,8.10
2017,09,18,02,46,8.10
2017,09,18,02,47,8.10
2017,09,18,02,48,8.10
2017,09,18,02,49,8.10
2017,09,18,02,50,8.10
2017,09,18,02,51,8.10
2017,09,18,02,52,8.10
2017,09,18,02,53,8.10
2017,09,18,02,54,8.10
2017,09,18,02,55,8.10
2017,09,18,02,56,8.10
2017,09,18,02,57,8.10
2017,09,18,02,58,8.10
2017,09,18,02,59,8.00
2017,09,18,03,00,8.00
2017,09,18,03,01,8.00
2017,09,18,03,02,8.00
2017,09,18,03,03,8.00
2017,09,18,03,04,8.00
2017,09,18,03,05,8.00
2017,09,18,03,06,8.00
2017,09,18,03,07,8.00
2017,09,18,03,08,8.00
2017,09,18,03,09,7.90
2017,09,18,03,10,7.90
2017,09,18,03,11,7.90
2017,09,18,03,12,7.90
2017,09,18,03,13,7.90
2017,09,18,03,14,7.90
2017,09,18,03,15,7.80
2017,09,18,03,16,7.80
2017,09,18,03,17,7.80
2017,09,18,03,18,7.80
2017,09,18,03,19,7.80
2017,09,18,03,20,7.80
2017,09,18,03,21,7.80
2017,09,18,03,22,7.80
2017,09,18,03,23,7.80
2017,09,18,03,24,7.80
2017,09,18,03,25,7.80
2017,09,18,03,26,7.80
2017,09,18,03,27,7.80
2017,09,18,03,28,7.80
2017,09,18,03,29,7.80
2017,09,18,03,30,7.80
2017,09,18,03,31,7.80
2017,09,18,03,32,7.80
2017,09,18,03,33,7.80
2017,09,18,03,34,7.80
2017,09,18,03,35,7.70
2017,09,18,03,36,7.70
2017,09,18,03,37,7.70
2017,09,18,03,38,7.70
2017,09,18,03,39,7.70
2017,09,18,03,40,7.70
2017,09,18,03,41,7.70
2017,09,18,03,42,7.70
2017,09,18,03,43,7.70
2017,09,18,03,44,7.70
2017,09,18,03,45,7.70
2017,09,18,03,46,7.70
2017,09,18,03,47,7.70
2017,09,18,03,48,7.60
2017,09,18,03,49,7.60
2017,09,18,03,50,7.60
2017,09,18,03,51,7.60
2017,09,18,03,52,7.60
2017,09,18,03,53,7.60
2017,09,18,03,54,7.60
2017,09,18,03,55,7.60
2017,09,18,03,56,7.60
2017,09,18,03,57,7.60
2017,09,18,03,58,7.60
2017,09,18,03,59,7.60
2017,09,18,04,00,7.60
2017,09,18,04,01,7.60
2017,09,18,04,02,7.60
2017,09,18,04,03,7.60
2017,09,18,04,04,7.60
2017,09,18,04,05,7.60
2017,09,18,04,06,7.60
2017,09,18,04,07,7.60
2017,09,18,04,08,7.50
2017,09,18,04,09,7.50
2017,09,18,04,10,7.50
2017,09,18,04,11,7.50
2017,09,18,04,12,7.40
2017,09,18,04,13,7.40
2017,09,18,04,14,7.40
2017,09,18,04,15,7.30
2017,09,18,04,16,7.30
2017,09,18,04,17,7.30
2017,09,18,04,18,7.30
2017,09,18,04,19,7.30
2017,09,18,04,20,7.30
2017,09,18,04,21,7.20
2017,09,18,04,22,7.20
2017,09,18,04,23,7.20
2017,09,18,04,24,7.20
2017,09,18,04,25,7.20
2017,09,18,04,26,7.20
2017,09,18,04,27,7.20
2017,09,18,04,28,7.20
2017,09,18,04,29,7.20
2017,09,18,04,30,7.20
2017,09,18,04,31,7.20
2017,09,18,04,32,7.20
2017,09,18,04,33,7.20
2017,09,18,04,34,7.20
2017,09,18,04,35,7.10
2017,09,18,04,36,7.10
2017,09,18,04,37,7.10
2017,09,18,04,38,7.00
2017,09,18,04,39,7.00
2017,09,18,04,40,6.90
2017,09,18,04,41,6.90
2017,09,18,04,42,6.90
2017,09,18,04,43,6.90
2017,09,18,04,44,6.90
2017,09,18,04,45,6.80
2017,09,18,04,46,6.80
2017,09,18,04,47,6.80
2017,09,18,04,48,6.80
2017,09,18,04,49,6.80
2017,09,18,04,50,6.80
2017,09,18,04,51,6.70
2017,09,18,04,52,6.70
2017,09,18,04,53,6.70
2017,09,18,04,54,6.70
2017,09,18,04,55,6.60
2017,09,18,04,56,6.60
2017,09,18,04,57,6.60
2017,09,18,04,58,6.60
2017,09,18,04,59,6.60
2017,09,18,05,00,6.60
2017,09,18,05,01,6.60
2017,09,18,05,02,6.60
2017,09,18,05,03,6.50
2017,09,18,05,04,6.50
2017,09,18,05,05,6.50
2017,09,18,05,06,6.50
2017,09,18,05,07,6.50
2017,09,18,05,08,6.50
2017,09,18,05,09,6.40
2017,09,18,05,10,6.40
2017,09,18,05,11,6.40
2017,09,18,05,12,6.40
2017,09,18,05,13,6.40
2017,09,18,05,14,6.40
2017,09,18,05,15,6.30
2017,09,18,05,16,6.30
2017,09,18,05,17,6.30
2017,09,18,05,18,6.30
2017,09,18,05,19,6.30
2017,09,18,05,20,6.30
2017,09,18,05,21,6.30
2017,09,18,05,22,6.20
2017,09,18,05,23,6.20
2017,09,18,05,24,6.20
2017,09,18,05,25,6.20
2017,09,18,05,26,6.20
2017,09,18,05,27,6.20
2017,09,18,05,28,6.20
2017,09,18,05,29,6.20
2017,09,18,05,30,6.20
2017,09,18,05,31,6.20
2017,09,18,05,32,6.20
2017,09,18,05,33,6.20
2017,09,18,05,34,6.20
2017,09,18,05,35,6.20
2017,09,18,05,36,6.20
2017,09,18,05,37,6.20
2017,09,18,05,38,6.20
2017,09,18,05,39,6.20
2017,09,18,05,40,6.20
2017,09,18,05,41,6.20
2017,09,18,05,42,6.20
2017,09,18,05,43,6.20
2017,09,18,05,44,6.10
2017,09,18,05,45,6.10
2017,09,18,05,46,6.10
2017,09,18,05,47,6.10
2017,09,18,05,48,6.10
2017,09,18,05,49,6.10
2017,09,18,05,50,6.10
2017,09,18,05,51,6.10
2017,09,18,05,52,6.10
2017,09,18,05,53,6.10
2017,09,18,05,54,6.10
2017,09,18,05,55,6.10
2017,09,18,05,56,6.10
2017,09,18,05,57,6.20
2017,09,18,05,58,6.20
2017,09,18,05,59,6.20
2017,09,18,06,00,6.20
2017,09,18,06,01,6.20
2017,09,18,06,02,6.20
2017,09,18,06,03,6.20
2017,09,18,06,04,6.20
2017,09,18,06,05,6.20
2017,09,18,06,06,6.20
2017,09,18,06,07,6.10
2017,09,18,06,08,6.10
2017,09,18,06,09,6.10
2017,09,18,06,10,6.00
2017,09,18,06,11,6.00
2017,09,18,06,12,6.00
2017,09,18,06,13,5.90
2017,09,18,06,14,5.90
2017,09,18,06,15,5.90
2017,09,18,06,16,5.90
2017,09,18,06,17,5.90
2017,09,18,06,18,5.90
2017,09,18,06,19,5.90
2017,09,18,06,20,5.90
2017,09,18,06,21,5.90
2017,09,18,06,22,5.90
2017,09,18,06,23,5.90
2017,09,18,06,24,5.90
2017,09,18,06,25,5.90
2017,09,18,06,26,5.90
2017,09,18,06,27,5.90
2017,09,18,06,28,5.90
2017,09,18,06,29,5.90
2017,09,18,06,30,5.90
2017,09,18,06,31,5.90
2017,09,18,06,32,5.90
2017,09,18,06,33,5.90
2017,09,18,06,34,5.90
2017,09,18,06,35,5.90
2017,09,18,06,36,5.90
2017,09,18,06,37,5.80
2017,09,18,06,38,5.80
2017,09,18,06,39,5.80
2017,09,18,06,40,5.80
2017,09,18,06,41,5.80
2017,09,18,06,42,5.80
2017,09,18,06,43,5.90
2017,09,18,06,44,5.90
2017,09,18,06,45,5.90
2017,09,18,06,46,5.90
2017,09,18,06,47,5.90
2017,09,18,06,48,5.90
2017,09,18,06,49,5.90
2017,09,18,06,50,5.90
2017,09,18,06,51,5.90
2017,09,18,06,52,5.90
2017,09,18,06,53,5.90
2017,09,18,06,54,5.90
2017,09,18,06,55,5.90
2017,09,18,06,56,5.90
2017,09,18,06,57,5.90
2017,09,18,06,58,5.90
2017,09,18,06,59,5.90
2017,09,18,07,00,5.90
2017,09,18,07,01,5.90
2017,09,18,07,02,5.90
2017,09,18,07,03,5.90
2017,09,18,07,04,5.80
2017,09,18,07,05,5.80
2017,09,18,07,06,5.80
2017,09,18,07,07,5.80
2017,09,18,07,08,5.80
2017,09,18,07,09,5.80
2017,09,18,07,10,5.80
2017,09,18,07,11,5.80
2017,09,18,07,12,5.80
2017,09,18,07,13,5.80
2017,09,18,07,14,5.80
2017,09,18,07,15,5.80
2017,09,18,07,16,5.80
2017,09,18,07,17,5.80
2017,09,18,07,18,5.80
2017,09,18,07,19,5.80
2017,09,18,07,20,5.70
2017,09,18,07,21,5.70
2017,09,18,07,22,5.70
2017,09,18,07,23,5.70
2017,09,18,07,24,5.70
2017,09,18,07,25,5.70
2017,09,18,07,26,5.70
2017,09,18,07,27,5.70
2017,09,18,07,28,5.70
2017,09,18,07,29,5.70
2017,09,18,07,30,5.70
2017,09,18,07,31,5.70
2017,09,18,07,32,5.70
2017,09,18,07,33,5.70
2017,09,18,07,34,5.70
2017,09,18,07,35,5.70
2017,09,18,07,36,5.70
2017,09,18,07,37,5.70
2017,09,18,07,38,5.70
2017,09,18,07,39,5.70
2017,09,18,07,40,5.80
2017,09,18,07,41,5.80
2017,09,18,07,42,5.80
2017,09,18,07,43,5.80
2017,09,18,07,44,5.80
2017,09,18,07,45,5.80
2017,09,18,07,46,5.90
2017,09,18,07,47,5.90
2017,09,18,07,48,5.90
2017,09,18,07,49,6.00
2017,09,18,07,50,6.00
2017,09,18,07,51,6.00
2017,09,18,07,52,6.10
2017,09,18,07,53,6.10
2017,09,18,07,54,6.10
2017,09,18,07,55,6.20
2017,09,18,07,56,6.20
2017,09,18,07,57,6.20
2017,09,18,07,58,6.20
2017,09,18,07,59,6.30
2017,09,18,08,00,6.30
2017,09,18,08,01,6.30
2017,09,18,08,02,6.30
2017,09,18,08,03,6.40
2017,09,18,08,04,6.40
2017,09,18,08,05,6.40
2017,09,18,08,06,6.40
2017,09,18,08,07,6.50
2017,09,18,08,08,6.60
2017,09,18,08,09,6.60
2017,09,18,08,10,6.60
2017,09,18,08,11,6.70
2017,09,18,08,12,6.70
2017,09,18,08,13,6.80
2017,09,18,08,14,6.90
2017,09,18,08,15,6.90
2017,09,18,08,16,6.90
2017,09,18,08,17,7.00
2017,09,18,08,18,7.10
2017,09,18,08,19,7.10
2017,09,18,08,20,7.20
2017,09,18,08,21,7.20
2017,09,18,08,22,7.20
2017,09,18,08,23,7.30
2017,09,18,08,24,7.30
2017,09,18,08,25,7.40
2017,09,18,08,26,7.50
2017,09,18,08,27,7.50
2017,09,18,08,28,7.60
2017,09,18,08,29,7.70
2017,09,18,08,30,7.70
2017,09,18,08,31,7.70
2017,09,18,08,32,7.80
2017,09,18,08,33,7.80
2017,09,18,08,34,7.90
2017,09,18,08,35,7.90
2017,09,18,08,36,8.00
2017,09,18,08,37,8.10
2017,09,18,08,38,8.10
2017,09,18,08,39,8.20
2017,09,18,08,40,8.20
2017,09,18,08,41,8.20
2017,09,18,08,42,8.20
2017,09,18,08,43,8.20
2017,09,18,08,44,8.20
2017,09,18,08,45,8.20
2017,09,18,08,46,8.10
2017,09,18,08,47,8.10
2017,09,18,08,48,8.20
2017,09,18,08,49,8.20
2017,09,18,08,50,8.20
2017,09,18,08,51,8.30
2017,09,18,08,52,8.30
2017,09,18,08,53,8.40
2017,09,18,08,54,8.50
2017,09,18,08,55,8.60
2017,09,18,08,56,8.60
2017,09,18,08,57,8.70
2017,09,18,08,58,8.80
2017,09,18,08,59,8.80
2017,09,18,09,00,8.90
2017,09,18,09,01,9.00
2017,09,18,09,02,9.00
2017,09,18,09,03,9.10
2017,09,18,09,04,9.10
2017,09,18,09,05,9.20
2017,09,18,09,06,9.20
2017,09,18,09,07,9.30
2017,09,18,09,08,9.40
2017,09,18,09,09,9.50
2017,09,18,09,10,9.60
2017,09,18,09,11,9.70
2017,09,18,09,12,9.80
2017,09,18,09,13,9.90
2017,09,18,09,14,9.90
2017,09,18,09,15,10.00
2017,09,18,09,16,10.10
2017,09,18,09,17,10.10
2017,09,18,09,18,10.20
2017,09,18,09,19,10.30
2017,09,18,09,20,10.40
2017,09,18,09,21,10.50
2017,09,18,09,22,10.60
2017,09,18,09,23,10.70
2017,09,18,09,24,10.80
2017,09,18,09,25,10.90
2017,09,18,09,26,11.00
2017,09,18,09,27,11.10
2017,09,18,09,28,11.20
2017,09,18,09,29,11.30
2017,09,18,09,30,11.30
2017,09,18,09,31,11.40
2017,09,18,09,32,11.50
2017,09,18,09,33,11.60
2017,09,18,09,34,11.70
2017,09,18,09,35,11.80
2017,09,18,09,36,11.90
2017,09,18,09,37,12.00
2017,09,18,09,38,12.00
2017,09,18,09,39,12.10
2017,09,18,09,40,12.20
2017,09,18,09,41,12.20
2017,09,18,09,42,12.20
2017,09,18,09,43,12.30
2017,09,18,09,44,12.30
2017,09,18,09,45,12.30
2017,09,18,09,46,12.30
2017,09,18,09,47,12.30
2017,09,18,09,48,12.30
2017,09,18,09,49,12.30
2017,09,18,09,50,12.30
2017,09,18,09,51,12.30
2017,09,18,09,52,12.40
2017,09,18,09,53,12.40
2017,09,18,09,54,12.40
2017,09,18,09,55,12.50
2017,09,18,09,56,12.60
2017,09,18,09,57,12.60
2017,09,18,09,58,12.70
2017,09,18,09,59,12.70
2017,09,18,10,00,12.80
2017,09,18,10,01,12.90
2017,09,18,10,02,12.90
2017,09,18,10,03,12.90
2017,09,18,10,04,12.90
2017,09,18,10,05,12.90
2017,09,18,10,06,12.90
2017,09,18,10,07,12.90
2017,09,18,10,08,12.90
2017,09,18,10,09,13.00
2017,09,18,10,10,13.00
2017,09,18,10,11,13.00
2017,09,18,10,12,13.10
2017,09,18,10,13,13.10
2017,09,18,10,14,13.10
2017,09,18,10,15,13.10
2017,09,18,10,16,13.10
2017,09,18,10,17,13.10
2017,09,18,10,18,13.00
2017,09,18,10,19,13.00
2017,09,18,10,20,13.00
2017,09,18,10,21,12.90
2017,09,18,10,22,12.90
2017,09,18,10,23,12.90
2017,09,18,10,24,12.90
2017,09,18,10,25,12.80
2017,09,18,10,26,12.80
2017,09,18,10,27,12.90
2017,09,18,10,28,12.90
2017,09,18,10,29,13.00
2017,09,18,10,30,13.10
2017,09,18,10,31,13.10
2017,09,18,10,32,13.20
2017,09,18,10,33,13.30
2017,09,18,10,34,13.30
2017,09,18,10,35,13.40
2017,09,18,10,36,13.60
2017,09,18,10,37,13.70
2017,09,18,10,38,13.80
2017,09,18,10,39,13.80
2017,09,18,10,40,13.90
2017,09,18,10,41,13.90
2017,09,18,10,42,13.90
2017,09,18,10,43,14.00
2017,09,18,10,44,14.10
2017,09,18,10,45,14.10
2017,09,18,10,46,14.20
2017,09,18,10,47,14.20
2017,09,18,10,48,14.20
2017,09,18,10,49,14.20
2017,09,18,10,50,14.10
2017,09,18,10,51,14.10
2017,09,18,10,52,14.10
2017,09,18,10,53,14.10
2017,09,18,10,54,14.10
2017,09,18,10,55,14.20
2017,09,18,10,56,14.20
2017,09,18,10,57,14.30
2017,09,18,10,58,14.30
2017,09,18,10,59,14.30
2017,09,18,11,00,14.20
2017,09,18,11,01,14.20
2017,09,18,11,02,14.20
2017,09,18,11,03,14.10
2017,09,18,11,04,14.10
2017,09,18,11,05,14.10
2017,09,18,11,06,14.10
2017,09,18,11,07,14.00
2017,09,18,11,08,14.10
2017,09,18,11,09,14.10
2017,09,18,11,10,14.00
2017,09,18,11,11,14.00
2017,09,18,11,12,14.00
2017,09,18,11,13,14.10
2017,09,18,11,14,14.10
2017,09,18,11,15,14.10
2017,09,18,11,16,14.10
2017,09,18,11,17,14.10
2017,09,18,11,18,14.10
2017,09,18,11,19,14.20
2017,09,18,11,20,14.20
2017,09,18,11,21,14.20
2017,09,18,11,22,14.30
2017,09,18,11,23,14.30
2017,09,18,11,24,14.30
2017,09,18,11,25,14.40
2017,09,18,11,26,14.40
2017,09,18,11,27,14.40
2017,09,18,11,28,14.30
2017,09,18,11,29,14.30
2017,09,18,11,30,14.20
2017,09,18,11,31,14.20
2017,09,18,11,32,14.20
2017,09,18,11,33,14.10
2017,09,18,11,34,14.10
2017,09,18,11,35,14.00
2017,09,18,11,36,13.90
2017,09,18,11,37,13.90
2017,09,18,11,38,13.80
2017,09,18,11,39,13.70
2017,09,18,11,40,13.60
2017,09,18,11,41,13.60
2017,09,18,11,42,13.50
2017,09,18,11,43,13.50
2017,09,18,11,44,13.50
2017,09,18,11,45,13.50
2017,09,18,11,46,13.50
2017,09,18,11,47,13.60
2017,09,18,11,48,13.60
2017,09,18,11,49,13.60
2017,09,18,11,50,13.60
2017,09,18,11,51,13.60
2017,09,18,11,52,13.60
2017,09,18,11,53,13.60
2017,09,18,11,54,13.60
2017,09,18,11,55,13.70
2017,09,18,11,56,13.70
2017,09,18,11,57,13.70
2017,09,18,11,58,13.70
2017,09,18,11,59,13.70
2017,09,18,12,00,13.70
2017,09,18,12,01,13.60
2017,09,18,12,02,13.60
2017,09,18,12,03,13.60
2017,09,18,12,04,13.50
2017,09,18,12,05,13.50
2017,09,18,12,06,13.40
2017,09,18,12,07,13.40
2017,09,18,12,08,13.40
2017,09,18,12,09,13.50
2017,09,18,12,10,13.50
2017,09,18,12,11,13.60
2017,09,18,12,12,13.60
2017,09,18,12,13,13.70
2017,09,18,12,14,13.70
2017,09,18,12,15,13.80
2017,09,18,12,16,13.80
2017,09,18,12,17,13.90
2017,09,18,12,18,14.00
2017,09,18,12,19,14.00
2017,09,18,12,20,14.10
2017,09,18,12,21,14.10
2017,09,18,12,22,14.20
2017,09,18,12,23,14.30
2017,09,18,12,24,14.30
2017,09,18,12,25,14.40
2017,09,18,12,26,14.50
2017,09,18,12,27,14.60
2017,09,18,12,28,14.60
2017,09,18,12,29,14.70
2017,09,18,12,30,14.80
2017,09,18,12,31,14.80
2017,09,18,12,32,14.80
2017,09,18,12,33,14.90
2017,09,18,12,34,14.90
2017,09,18,12,35,14.90
2017,09,18,12,36,14.90
2017,09,18,12,37,14.90
2017,09,18,12,38,15.00
2017,09,18,12,39,15.00
2017,09,18,12,40,15.00
2017,09,18,12,41,15.00
2017,09,18,12,42,15.00
2017,09,18,12,43,15.00
2017,09,18,12,44,15.10
2017,09,18,12,45,15.10
2017,09,18,12,46,15.10
2017,09,18,12,47,15.10
2017,09,18,12,48,15.10
2017,09,18,12,49,15.10
2017,09,18,12,50,15.10
2017,09,18,12,51,15.10
2017,09,18,12,52,15.10
2017,09,18,12,53,15.10
2017,09,18,12,54,15.00
2017,09,18,12,55,15.00
2017,09,18,12,56,14.90
2017,09,18,12,57,14.90
2017,09,18,12,58,14.90
2017,09,18,12,59,14.90
2017,09,18,13,00,14.80
2017,09,18,13,01,14.80
2017,09,18,13,02,14.80
2017,09,18,13,03,14.80
2017,09,18,13,04,14.80
2017,09,18,13,05,14.80
2017,09,18,13,06,14.80
2017,09,18,13,07,14.80
2017,09,18,13,08,14.80
2017,09,18,13,09,14.80
2017,09,18,13,10,14.90
2017,09,18,13,11,14.90
2017,09,18,13,12,14.90
2017,09,18,13,13,15.00
2017,09,18,13,14,15.00
2017,09,18,13,15,15.00
2017,09,18,13,16,15.10
2017,09,18,13,17,15.10
2017,09,18,13,18,15.10
2017,09,18,13,19,15.10
2017,09,18,13,20,15.10
2017,09,18,13,21,15.20
2017,09,18,13,22,15.20
2017,09,18,13,23,15.20
2017,09,18,13,24,15.30
2017,09,18,13,25,15.30
2017,09,18,13,26,15.30
2017,09,18,13,27,15.30
2017,09,18,13,28,15.30
2017,09,18,13,29,15.30
2017,09,18,13,30,15.20
2017,09,18,13,31,15.20
2017,09,18,13,32,15.20
2017,09,18,13,33,15.10
2017,09,18,13,34,15.10
2017,09,18,13,35,15.00
2017,09,18,13,36,15.00
2017,09,18,13,37,15.00
2017,09,18,13,38,14.90
2017,09,18,13,39,14.90
2017,09,18,13,40,14.80
2017,09,18,13,41,14.80
2017,09,18,13,42,14.80
2017,09,18,13,43,14.70
2017,09,18,13,44,14.70
2017,09,18,13,45,14.70
2017,09,18,13,46,14.70
2017,09,18,13,47,14.70
2017,09,18,13,48,14.70
2017,09,18,13,49,14.70
2017,09,18,13,50,14.70
2017,09,18,13,51,14.70
2017,09,18,13,52,14.70
2017,09,18,13,53,14.70
2017,09,18,13,54,14.80
2017,09,18,13,55,14.90
2017,09,18,13,56,14.90
2017,09,18,13,57,14.90
2017,09,18,13,58,14.90
2017,09,18,13,59,14.90
2017,09,18,14,00,14.90
2017,09,18,14,01,14.90
2017,09,18,14,02,14.90
2017,09,18,14,03,14.90
2017,09,18,14,04,14.90
2017,09,18,14,05,15.00
2017,09,18,14,06,15.00
2017,09,18,14,07,15.00
2017,09,18,14,08,15.00
2017,09,18,14,09,14.90
2017,09,18,14,10,14.90
2017,09,18,14,11,14.90
2017,09,18,14,12,14.80
2017,09,18,14,13,14.80
2017,09,18,14,14,14.80
2017,09,18,14,15,14.70
2017,09,18,14,16,14.70
2017,09,18,14,17,14.70
2017,09,18,14,18,14.70
2017,09,18,14,19,14.70
2017,09,18,14,20,14.70
2017,09,18,14,21,14.60
2017,09,18,14,22,14.60
2017,09,18,14,23,14.60
2017,09,18,14,24,14.60
2017,09,18,14,25,14.60
2017,09,18,14,26,14.60
2017,09,18,14,27,14.50
2017,09,18,14,28,14.50
2017,09,18,14,29,14.40
2017,09,18,14,30,14.40
2017,09,18,14,31,14.30
2017,09,18,14,32,14.30
2017,09,18,14,33,14.30
2017,09,18,14,34,14.20
2017,09,18,14,35,14.20
2017,09,18,14,36,14.20
2017,09,18,14,37,14.20
2017,09,18,14,38,14.20
2017,09,18,14,39,14.20
2017,09,18,14,40,14.20
2017,09,18,14,41,14.10
2017,09,18,14,42,14.10
2017,09,18,14,43,14.10
2017,09,18,14,44,14.10
2017,09,18,14,45,14.00
2017,09,18,14,46,14.00
2017,09,18,14,47,14.00
2017,09,18,14,48,13.90
2017,09,18,14,49,13.90
2017,09,18,14,50,13.90
2017,09,18,14,51,13.80
2017,09,18,14,52,13.80
2017,09,18,14,53,13.80
2017,09,18,14,54,13.80
2017,09,18,14,55,13.80
2017,09,18,14,56,13.80
2017,09,18,14,57,13.80
2017,09,18,14,58,13.80
2017,09,18,14,59,13.80
2017,09,18,15,00,13.80
2017,09,18,15,01,13.90
2017,09,18,15,02,13.90
2017,09,18,15,03,13.90
2017,09,18,15,04,13.90
2017,09,18,15,05,13.90
2017,09,18,15,06,13.90
2017,09,18,15,07,13.90
2017,09,18,15,08,13.90
2017,09,18,15,09,14.00
2017,09,18,15,10,14.00
2017,09,18,15,11,14.00
2017,09,18,15,12,14.00
2017,09,18,15,13,14.00
2017,09,18,15,14,14.10
2017,09,18,15,15,14.10
2017,09,18,15,16,14.10
2017,09,18,15,17,14.10
2017,09,18,15,18,14.10
2017,09,18,15,19,14.10
2017,09,18,15,20,14.10
2017,09,18,15,21,14.10
2017,09,18,15,22,14.10
2017,09,18,15,23,14.10
2017,09,18,15,24,14.10
2017,09,18,15,25,14.10
2017,09,18,15,26,14.10
2017,09,18,15,27,14.10
2017,09,18,15,28,14.10
2017,09,18,15,29,14.10
2017,09,18,15,30,14.10
2017,09,18,15,31,14.10
2017,09,18,15,32,14.10
2017,09,18,15,33,14.10
2017,09,18,15,34,14.10
2017,09,18,15,35,14.10
2017,09,18,15,36,14.10
2017,09,18,15,37,14.10
2017,09,18,15,38,14.20
2017,09,18,15,39,14.20
2017,09,18,15,40,14.20
2017,09,18,15,41,14.20
2017,09,18,15,42,14.20
2017,09,18,15,43,14.20
2017,09,18,15,44,14.20
2017,09,18,15,45,14.20
2017,09,18,15,46,14.30
2017,09,18,15,47,14.30
2017,09,18,15,48,14.30
2017,09,18,15,49,14.30
2017,09,18,15,50,14.30
2017,09,18,15,51,14.30
2017,09,18,15,52,14.20
2017,09,18,15,53,14.20
2017,09,18,15,54,14.20
2017,09,18,15,55,14.20
2017,09,18,15,56,14.10
2017,09,18,15,57,14.10
2017,09,18,15,58,14.10
2017,09,18,15,59,14.00
2017,09,18,16,00,14.00
2017,09,18,16,01,14.00
2017,09,18,16,02,13.90
2017,09,18,16,03,13.90
2017,09,18,16,04,13.90
2017,09,18,16,05,13.90
2017,09,18,16,06,13.90
2017,09,18,16,07,13.80
2017,09,18,16,08,13.80
2017,09,18,16,09,13.80
2017,09,18,16,10,13.80
2017,09,18,16,11,13.80
2017,09,18,16,12,13.70
2017,09,18,16,13,13.70
2017,09,18,16,14,13.70
2017,09,18,16,15,13.70
2017,09,18,16,16,13.70
2017,09,18,16,17,13.70
2017,09,18,16,18,13.60
2017,09,18,16,19,13.60
2017,09,18,16,20,13.60
2017,09,18,16,21,13.60
2017,09,18,16,22,13.60
2017,09,18,16,23,13.60
2017,09,18,16,24,13.60
2017,09,18,16,25,13.60
2017,09,18,16,26,13.60
2017,09,18,16,27,13.60
2017,09,18,16,28,13.60
2017,09,18,16,29,13.60
2017,09,18,16,30,13.60
2017,09,18,16,31,13.60
2017,09,18,16,32,13.60
2017,09,18,16,33,13.60
2017,09,18,16,34,13.60
2017,09,18,16,35,13.60
2017,09,18,16,36,13.60
2017,09,18,16,37,13.60
2017,09,18,16,38,13.60
2017,09,18,16,39,13.60
2017,09,18,16,40,13.60
2017,09,18,16,41,13.60
2017,09,18,16,42,13.60
2017,09,18,16,43,13.60
2017,09,18,16,44,13.60
2017,09,18,16,45,13.60
2017,09,18,16,46,13.60
2017,09,18,16,47,13.60
2017,09,18,16,48,13.70
2017,09,18,16,49,13.70
2017,09,18,16,50,13.70
2017,09,18,16,51,13.70
2017,09,18,16,52,13.80
2017,09,18,16,53,13.80
2017,09,18,16,54,13.80
2017,09,18,16,55,13.80
2017,09,18,16,56,13.80
2017,09,18,16,57,13.90
2017,09,18,16,58,13.90
2017,09,18,16,59,13.90
2017,09,18,17,00,13.90
2017,09,18,17,01,13.90
2017,09,18,17,02,13.90
2017,09,18,17,03,13.90
2017,09,18,17,04,13.90
2017,09,18,17,05,14.00
2017,09,18,17,06,14.00
2017,09,18,17,07,14.00
2017,09,18,17,08,14.00
2017,09,18,17,09,14.00
2017,09,18,17,10,14.00
2017,09,18,17,11,14.00
2017,09,18,17,12,14.00
2017,09,18,17,13,14.00
2017,09,18,17,14,14.00
2017,09,18,17,15,14.00
2017,09,18,17,16,14.00
2017,09,18,17,17,13.90
2017,09,18,17,18,13.90
2017,09,18,17,19,13.90
2017,09,18,17,20,13.90
2017,09,18,17,21,13.90
2017,09,18,17,22,13.90
2017,09,18,17,23,13.90
2017,09,18,17,24,13.90
2017,09,18,17,25,14.00
2017,09,18,17,26,14.00
2017,09,18,17,27,14.00
2017,09,18,17,28,14.00
2017,09,18,17,29,14.00
2017,09,18,17,30,14.00
2017,09,18,17,31,14.00
2017,09,18,17,32,14.00
2017,09,18,17,33,14.10
2017,09,18,17,34,14.10
2017,09,18,17,35,14.10
2017,09,18,17,36,14.10
2017,09,18,17,37,14.10
2017,09,18,17,38,14.10
2017,09,18,17,39,14.10
2017,09,18,17,40,14.10
2017,09,18,17,41,14.10
2017,09,18,17,42,14.10
2017,09,18,17,43,14.10